Flag for U.S.A. Weather past 2 weeks in San Jose, California, U.S.A.

Now
63 °F

Partly sunny.


Feels Like: 63 °F
Forecast: 58 / 67 °F
Wind: 12 mph from Southeast

Location: San Jose International Airport

Current Time: Oct 25, 2014 at 11:25:16 AM

Latest Report: Oct 25, 2014 at 10:53 AM


Visibility: 10 mi

Pressure: 30.07 "Hg

Humidity: 84%

Dew point: 58 °F

Location of San JoseLocation

Historic Weather in San Jose — Graph

°F

San Jose temperature yesterday

Maximum temperature yesterday: 75 °F (at 12:53 PM)
Minimum temperature yesterday: 51 °F (at 6:53 AM)
Average temperature yesterday: 62 °F

Past Weeks' High & Low Weather Summary

 TemperatureHumidityPressure
High87 °F (Oct 12, 2:53 PM)100% (Oct 19, 7:53 AM)30.11 "Hg (Oct 19, 7:53 AM)
Low49 °F (Oct 22, 5:53 AM)12% (Oct 12, 4:53 PM)29.83 "Hg (Oct 14, 1:53 PM)
Average64 °F67%29.97 "Hg
* Reported Oct 10 9:53 AM — Oct 25 9:53 AM, San Jose, Weather by CustomWeather, © 2014

Note: Actual official high and low records may vary slightly from our data, if they occured in-between our weather recording intervals... More about our weather records

Advertising

San Jose weather history for previous 24 hours

 ConditionsComfort  
Time TempWeatherWind HumidityBarometerVisibility
9:53 AM
Oct 25
59 °FBroken clouds.8 mph96%30.04 "Hg10 mi
8:53 AM58 °FLight rain. Broken clouds.9 mph97%30.02 "Hg7 mi
7:53 AM58 °FRain. Fog.6 mph97%30.01 "Hg2 mi
6:53 AM59 °FLight rain. Fog.7 mph96%29.97 "Hg2 mi
5:53 AM62 °FLight rain. Overcast.13 mph80%29.93 "Hg7 mi
4:53 AM63 °FPassing clouds.7 mph70%29.92 "Hg10 mi
3:53 AM63 °FPassing clouds.13 mph68%29.92 "Hg10 mi
2:53 AM63 °FClear.9 mph68%29.93 "Hg10 mi
1:53 AM63 °FPassing clouds.6 mph68%29.95 "Hg10 mi
12:53 AM63 °FOvercast.9 mph70%29.94 "Hg10 mi
11:53 PM
Oct 24
62 °FPassing clouds.9 mph75%29.95 "Hg10 mi
10:53 PM61 °FPassing clouds.12 mph75%29.93 "Hg10 mi
9:53 PM61 °FPassing clouds.8 mph72%29.93 "Hg10 mi
8:53 PM62 °FPassing clouds.9 mph70%29.92 "Hg10 mi
7:53 PM63 °FPassing clouds.14 mph70%29.91 "Hg10 mi
6:53 PM64 °FScattered clouds.14 mph65%29.88 "Hg10 mi
5:53 PM68 °FBroken clouds.7 mph57%29.87 "Hg10 mi
4:53 PM69 °FBroken clouds.10 mph63%29.88 "Hg10 mi
3:53 PM71 °FScattered clouds.16 mph61%29.88 "Hg10 mi
2:53 PM72 °FPassing clouds.15 mph55%29.88 "Hg10 mi
1:53 PM75 °FPassing clouds.13 mph48%29.88 "Hg10 mi
12:53 PM75 °FPassing clouds.3 mph42%29.90 "Hg10 mi
11:53 AM69 °FSunny.No wind59%29.93 "Hg10 mi
Weather by CustomWeather, © 2014

See weather overviewHow to use our weather pages